Showing default

YAM-16, 68992

Orbit data source: Space-Track

YAM-16, 68992 is an American payload satellite in SSO that was launched on Sun, 03 May 2026 UTC via an FALCON 9 launch vehicle from the Air Force Western Test Range (AFWTR). Payload-class satellites include a variety of spacecraft equipped with specific instruments for various scientific and technological missions. These include communications satellites like Starlink; space stations such as the ISS; scientific satellites like the Hubble; Earth observation satellites from companies like Planet Labs, Umbra, and HawkEye 360; GPS; miniature CubeSats for education and research; and military/defense satellites.

Loading next visibility...
Identifier
68992, 2026-100N
Orbit
SSO
Country
Flag of USUS
Related business
Manufacturer
Airbus/Toulouse
Mission
Operational Commercial Imaging
Bus & Motor
ARROW, Unknown motor
Mass
~150 kg wet, ~140 kg dry
Launch date (UTC)
2026-05-03 (5 months ago)
Launch vehicle
FALCON 9
Launch site
Air Force Western Test Range (AFWTR)
Object type
Payload
Rocket body
Debris
Shape & HBR
Trap Box + 2 Pan, 2.3 m
Radar Cross Section
2.032 m², Large (>1 m²)

Expand to show TLE details & history
Last TLE update: 9 hours ago

TLE from 9 hours ago
0 YAM-16
1 68992U 26100N   26266.16278041  .00000805  00000-0  85580-4 0  9997
2 68992  97.7232 161.6789 0003534 152.6815 207.4590 14.91674902 21303
Epoch: 2026-09-23T03:54Z
TLE epoch observation values (Epoch: 2026-09-23T03:54:24.227Z)
Latitude
-0.00005°
Longitude
101.0601°
Altitude
597.942 km
Speed
7.56 km/s
True Right ascension
10h 46m 42s
True Declination
0° 00' 00"
Sunlit
Object was in daylight at epoch
Visualization orbit readout
Latitude
Unknown
Longitude
Unknown
Altitude
Unknown
Speed
Unknown
Apparent Right ascension
Unknown
Apparent Declination
Unknown
Sunlit
N/A
Visualization observer readout
Local Sidereal Time
06:28:09
Azimuth
Unknown
Elevation
Unknown
Doppler factor
Unknown
Orbital elements
Apogee altitude
592.193 km
Perigee altitude
587.268 km
Semi-major axis
6,967.867 km
Eccentricity
0.00035
Inclination
97.7232°
RAAN
161.6789°
Arg. of periapsis
152.6815°
True anomaly
207.44033°
Mean anomaly
207.459°
Eccentric anomaly
207.44967°
Mean motion
3.73159 °/min
Orbital period
96.47 mins
BSTAR
0.00008558
Loading maneuver chart data...
Computing Atmospheric mass density...
Loading historical data...
Loading historical data...
Loading historical data...
Loading historical data...
Loading historical data...
Loading historical data...
Loading historical data...

Documentation

Showing up to 5 results
|